When you browse on this site, cookies collect data to enhance your experience and personalize the content and advertising you see.
Visit our Privacy Policy to learn more. By continuing to use the site, you agree to this use of cookies and data.
  • In Hungary
  • List of Countries
  • For 7 days
  • Water Temperature
  • Weather Map
  • News
  • Weather Widgets
  • user-avatar
    Login

    Hourly Weather Mihaliha

    Today, 4 April, Saturday

    Time Temperature Precipitation Wind Pressure Humidity
    00:00 0°C° 0 mm 4 mps 741 mmHg 82%
    01:00 0°C° 0 mm 4 mps 741 mmHg 83%
    02:00 -1°C° 0 mm 4 mps 742 mmHg 83%
    03:00 -1°C° 0 mm 4 mps 742 mmHg 83%
    04:00 -1°C° 0 mm 4 mps 743 mmHg 83%
    05:00 -2°C° 0 mm 4 mps 743 mmHg 82%
    06:00 -1°C° 0 mm 4 mps 744 mmHg 77%
    07:00 0°C° 0 mm 4 mps 745 mmHg 71%
    08:00 +1°C° 0 mm 5 mps 745 mmHg 65%
    09:00 +2°C° 0 mm 5 mps 746 mmHg 58%
    10:00 +3°C° 0 mm 5 mps 746 mmHg 52%
    11:00 +3°C° 0 mm 5 mps 747 mmHg 45%
    12:00 +5°C° 0 mm 5 mps 747 mmHg 43%
    13:00 +5°C° 0 mm 5 mps 748 mmHg 40%
    14:00 +6°C° 0 mm 5 mps 748 mmHg 38%
    15:00 +5°C° 0.1 mm 4 mps 749 mmHg 41%
    16:00 +4°C° 0.1 mm 4 mps 749 mmHg 45%
    17:00 +4°C° 0.1 mm 3 mps 750 mmHg 49%
    18:00 +3°C° 0 mm 3 mps 750 mmHg 54%
    19:00 +3°C° 0 mm 2 mps 751 mmHg 59%
    20:00 +1°C° 0 mm 2 mps 752 mmHg 63%
    21:00 +1°C° 0 mm 2 mps 752 mmHg 64%
    22:00 -1°C° 0 mm 2 mps 752 mmHg 65%
    23:00 -1°C° 0 mm 2 mps 753 mmHg 66%

    Tomorrow, 5 April, Sunday

    Time Temperature Precipitation Wind Pressure Humidity
    00:00 -1°C° 0 mm 2 mps 753 mmHg 67%
    01:00 -1°C° 0 mm 2 mps 753 mmHg 68%
    02:00 -1°C° 0 mm 2 mps 753 mmHg 68%
    03:00 -1°C° 0 mm 2 mps 753 mmHg 70%
    04:00 -1°C° 0 mm 3 mps 753 mmHg 72%
    05:00 -1°C° 0 mm 3 mps 753 mmHg 74%
    06:00 0°C° 0.3 mm 3 mps 753 mmHg 74%
    07:00 -1°C° 0.3 mm 4 mps 754 mmHg 75%
    08:00 -1°C° 0.3 mm 4 mps 754 mmHg 75%
    09:00 0°C° 0.2 mm 5 mps 754 mmHg 64%
    10:00 +1°C° 0.2 mm 6 mps 755 mmHg 53%
    11:00 +2°C° 0.2 mm 6 mps 755 mmHg 41%
    12:00 +2°C° 0 mm 6 mps 755 mmHg 40%
    13:00 +3°C° 0 mm 6 mps 756 mmHg 39%
    14:00 +3°C° 0 mm 6 mps 756 mmHg 38%
    15:00 +2°C° 0.2 mm 6 mps 756 mmHg 42%
    16:00 +1°C° 0.2 mm 5 mps 756 mmHg 46%
    17:00 +1°C° 0.2 mm 5 mps 756 mmHg 50%
    18:00 0°C° 0 mm 4 mps 757 mmHg 54%
    19:00 -1°C° 0 mm 4 mps 757 mmHg 57%
    20:00 -1°C° 0 mm 3 mps 758 mmHg 61%
    21:00 -2°C° 0 mm 3 mps 758 mmHg 63%
    22:00 -2°C° 0 mm 2 mps 759 mmHg 65%
    23:00 -3°C° 0 mm 2 mps 759 mmHg 67%

    Day after tomorrow, 6 April, Monday

    Time Temperature Precipitation Wind Pressure Humidity
    00:00 -3°C° 0 mm 2 mps 759 mmHg 67%
    01:00 -3°C° 0 mm 2 mps 760 mmHg 67%
    02:00 -3°C° 0 mm 2 mps 760 mmHg 67%
    03:00 -3°C° 0 mm 2 mps 761 mmHg 66%
    04:00 -3°C° 0 mm 2 mps 761 mmHg 65%
    05:00 -3°C° 0 mm 2 mps 761 mmHg 64%
    06:00 -2°C° 0 mm 3 mps 761 mmHg 57%
    07:00 -1°C° 0 mm 3 mps 762 mmHg 49%
    08:00 0°C° 0 mm 3 mps 762 mmHg 42%
    09:00 +1°C° 0 mm 3 mps 762 mmHg 40%
    10:00 +2°C° 0 mm 3 mps 762 mmHg 38%
    11:00 +3°C° 0 mm 3 mps 762 mmHg 36%
    12:00 +3°C° 0 mm 3 mps 762 mmHg 37%
    13:00 +4°C° 0 mm 3 mps 762 mmHg 37%
    14:00 +4°C° 0 mm 3 mps 762 mmHg 38%
    15:00 +5°C° 0 mm 2 mps 762 mmHg 43%
    16:00 +5°C° 0 mm 2 mps 762 mmHg 48%
    17:00 +5°C° 0 mm 1 mps 762 mmHg 53%
    18:00 +4°C° 0 mm 1 mps 762 mmHg 56%
    19:00 +3°C° 0 mm 1 mps 763 mmHg 60%
    20:00 +1°C° 0 mm 0 mps 763 mmHg 63%
    21:00 +2°C° 0 mm 1 mps 763 mmHg 64%
    22:00 +2°C° 0 mm 1 mps 763 mmHg 64%
    23:00 +2°C° 0 mm 1 mps 763 mmHg 65%

    7 April, Tuesday

    Time Temperature Precipitation Wind Pressure Humidity
    00:00 +1°C° 0 mm 1 mps 763 mmHg 68%
    01:00 +1°C° 0 mm 1 mps 763 mmHg 71%
    02:00 +1°C° 0 mm 1 mps 763 mmHg 74%
    03:00 -1°C° 0 mm 2 mps 763 mmHg 78%
    04:00 +1°C° 0 mm 2 mps 763 mmHg 83%
    05:00 +1°C° 0 mm 2 mps 763 mmHg 88%
    06:00 +2°C° 0 mm 2 mps 762 mmHg 85%
    07:00 +3°C° 0 mm 3 mps 762 mmHg 82%
    08:00 +5°C° 0 mm 3 mps 762 mmHg 79%
    09:00 +7°C° 0 mm 4 mps 761 mmHg 71%
    10:00 +8°C° 0 mm 4 mps 761 mmHg 64%
    11:00 +11°C° 0 mm 4 mps 760 mmHg 56%
    12:00 +12°C° 0 mm 4 mps 760 mmHg 53%
    13:00 +13°C° 0 mm 5 mps 759 mmHg 49%
    14:00 +14°C° 0 mm 5 mps 759 mmHg 46%
    15:00 +13°C° 0 mm 4 mps 758 mmHg 48%
    16:00 +13°C° 0 mm 4 mps 758 mmHg 51%
    17:00 +12°C° 0 mm 3 mps 757 mmHg 53%
    18:00 +11°C° 0 mm 3 mps 757 mmHg 57%
    19:00 +10°C° 0 mm 3 mps 757 mmHg 61%
    20:00 +8°C° 0 mm 3 mps 756 mmHg 65%
    21:00 +8°C° 0 mm 3 mps 756 mmHg 66%
    22:00 +7°C° 0 mm 3 mps 755 mmHg 67%
    23:00 +7°C° 0 mm 3 mps 755 mmHg 68%

    8 April, Wednesday

    Time Temperature Precipitation Wind Pressure Humidity
    00:00 +6°C° 0 mm 4 mps 754 mmHg 68%
    01:00 +6°C° 0 mm 4 mps 754 mmHg 67%
    02:00 +6°C° 0 mm 4 mps 753 mmHg 67%
    03:00 +6°C° 0.1 mm 4 mps 753 mmHg 71%
    04:00 +6°C° 0.1 mm 4 mps 753 mmHg 75%
    05:00 +6°C° 0.1 mm 4 mps 752 mmHg 80%
    06:00 +7°C° 0 mm 5 mps 752 mmHg 76%
    07:00 +8°C° 0 mm 6 mps 752 mmHg 73%
    08:00 +8°C° 0 mm 6 mps 752 mmHg 70%
    09:00 +8°C° 0 mm 6 mps 752 mmHg 70%
    10:00 +8°C° 0 mm 6 mps 753 mmHg 70%
    11:00 +9°C° 0 mm 5 mps 753 mmHg 69%
    12:00 +9°C° 0 mm 6 mps 753 mmHg 64%
    13:00 +10°C° 0 mm 6 mps 754 mmHg 60%
    14:00 +10°C° 0 mm 6 mps 754 mmHg 55%
    15:00 +10°C° 0 mm 5 mps 754 mmHg 54%
    16:00 +10°C° 0 mm 4 mps 754 mmHg 54%
    17:00 +10°C° 0 mm 3 mps 755 mmHg 53%
    18:00 +8°C° 0 mm 3 mps 755 mmHg 59%
    19:00 +7°C° 0 mm 2 mps 755 mmHg 64%
    20:00 +6°C° 0 mm 2 mps 755 mmHg 70%
    21:00 +6°C° 0 mm 1 mps 755 mmHg 73%
    22:00 +5°C° 0 mm 1 mps 755 mmHg 75%
    23:00 +5°C° 0 mm 1 mps 755 mmHg 78%

    9 April, Thursday

    Time Temperature Precipitation Wind Pressure Humidity
    00:00 +4°C° 0 mm 1 mps 755 mmHg 79%
    01:00 +4°C° 0 mm 1 mps 755 mmHg 80%
    02:00 +3°C° 0 mm 1 mps 754 mmHg 81%
    03:00 +2°C° 0 mm 2 mps 754 mmHg 83%
    04:00 +2°C° 0 mm 2 mps 753 mmHg 84%
    05:00 +2°C° 0 mm 2 mps 753 mmHg 85%
    06:00 +3°C° 0 mm 3 mps 752 mmHg 79%
    07:00 +5°C° 0 mm 4 mps 752 mmHg 72%
    08:00 +7°C° 0 mm 4 mps 751 mmHg 65%
    09:00 +8°C° 0 mm 5 mps 751 mmHg 59%
    10:00 +9°C° 0 mm 5 mps 750 mmHg 53%
    11:00 +11°C° 0 mm 6 mps 750 mmHg 46%
    12:00 +11°C° 0 mm 6 mps 749 mmHg 47%
    13:00 +11°C° 0 mm 6 mps 749 mmHg 47%
    14:00 +13°C° 0 mm 6 mps 748 mmHg 48%
    15:00 +12°C° 0 mm 5 mps 748 mmHg 53%
    16:00 +10°C° 0 mm 5 mps 748 mmHg 58%
    17:00 +9°C° 0 mm 5 mps 748 mmHg 64%
    18:00 +8°C° 0 mm 4 mps 748 mmHg 64%
    19:00 +7°C° 0 mm 4 mps 748 mmHg 64%
    20:00 +6°C° 0 mm 4 mps 748 mmHg 64%
    21:00 +5°C° 0 mm 4 mps 749 mmHg 62%
    22:00 +4°C° 0 mm 4 mps 749 mmHg 61%
    23:00 +2°C° 0 mm 3 mps 749 mmHg 60%
    Show more